This is the latest recevied weather packets stored in our database for station/object K9RCP-24. If no packets are shown the sender has not sent any weather packets the latest 10 day(s).
| Time | Temp. | Humidity | Pressure | Rain* | Wind** | Luminosity | Snow |
|---|---|---|---|---|---|---|---|
| 1778036574 | 17.22° C | 69% | 1018.3 hPa | 0 mm | - | - | - |
| 1778035551 | 17.78° C | 65% | 1017.9 hPa | 0 mm | - | - | - |
| 1778035292 | 17.78° C | 65% | 1017.9 hPa | 0 mm | - | - | - |
| 1778034195 | 18.33° C | 63% | 1017.9 hPa | 0 mm | - | - | - |
| 1778033947 | 18.33° C | 63% | 1017.9 hPa | 0 mm | - | - | - |
| 1778032889 | 18.89° C | 61% | 1017.9 hPa | 0 mm | - | - | - |
| 1778032180 | 19.44° C | 60% | 1017.9 hPa | 0 mm | - | - | - |
| 1778031540 | 19.44° C | 59% | 1017.9 hPa | 0 mm | - | - | - |
| 1778031115 | 19.44° C | 60% | 1017.9 hPa | 0 mm | - | - | - |
| 1778030858 | 19.44° C | 60% | 1017.6 hPa | 0 mm | - | - | - |
| 1778030577 | 18.89° C | 62% | 1017.9 hPa | 0 mm | - | - | - |
| 1778030454 | 18.33° C | 61% | 1017.9 hPa | 0 mm | - | - | - |
| 1778028129 | 18.89° C | 61% | 1017.9 hPa | 0 mm | - | - | - |
| 1778028005 | 18.89° C | 61% | 1017.9 hPa | 0 mm | - | - | - |
| 1778027879 | 18.89° C | 61% | 1017.9 hPa | 0 mm | - | - | - |
| 1778027501 | 18.33° C | 61% | 1017.9 hPa | 0 mm | - | - | - |
| 1778026733 | 18.89° C | 61% | 1017.9 hPa | 0 mm | - | - | - |
| 1778026474 | 18.89° C | 61% | 1017.9 hPa | 0 mm | - | - | - |
| 1778026351 | 18.89° C | 61% | 1017.9 hPa | 0 mm | - | - | - |
| 1778025247 | 18.89° C | 61% | 1018.3 hPa | 0 mm | - | - | - |
| 1778024993 | 18.33° C | 62% | 1018.3 hPa | 0 mm | - | - | - |
| 1778024353 | 18.33° C | 61% | 1018.6 hPa | 0 mm | - | - | - |
| 1778023444 | 18.33° C | 63% | 1018.6 hPa | 0 mm | - | - | - |
| 1778023293 | 18.33° C | 63% | 1018.3 hPa | 0 mm | - | - | - |
| 1778023170 | 17.78° C | 62% | 1018.6 hPa | 0 mm | - | - | - |
* Rain latest hour (hover to see other rain measurements)
** Current wind speed in m/s (hover to see current wind gust speed)